KD6VEX-1 Weather Reports


time (UTC)temp
C
wind
direction
speed
KPH
gust
KPH
rain 1hr
cm
rain 24hr
cm
rain mn
cm
humidity
%
barometer
mb
20260504215312 19 55 1.6 9.7 0.00 0.00 0.00 54 1014.8
20260504214812 18 33 1.6 12.9 0.00 0.00 0.00 54 1014.7
20260504214312 18 6 4.8 12.9 0.00 0.00 0.00 54 1014.8
20260504213812 18 81 1.6 9.7 0.00 0.00 0.00 55 1014.8
20260504213312 18 0 0.0 3.2 0.00 0.00 0.00 58 1014.9
20260504212812 18 0 0.0 3.2 0.00 0.00 0.00 57 1014.9
20260504212312 18 0 0.0 6.4 0.00 0.00 0.00 54 1015.0
20260504211812 19 0 0.0 6.4 0.00 0.00 0.00 54 1015.0
20260504211312 19 0 0.0 3.2 0.00 0.00 0.00 54 1014.9
20260504210812 19 0 0.0 6.4 0.00 0.00 0.00 55 1015.0
20260504210313 19 103 1.6 6.4 0.00 0.00 0.00 51 1015.0
20260504205812 20 0 0.0 8.0 0.00 0.00 0.00 49 1015.0
20260504205312 20 0 0.0 8.0 0.00 0.00 0.00 48 1015.0
20260504204812 20 88 1.6 6.4 0.00 0.00 0.00 49 1014.9
20260504204312 20 59 1.6 8.0 0.00 0.00 0.00 51 1014.8
20260504203312 21 106 1.6 8.0 0.00 0.00 0.00 49 1014.8
20260504202812 21 96 3.2 8.0 0.00 0.00 0.00 48 1014.8
20260504202312 21 58 1.6 8.0 0.00 0.00 0.00 48 1014.8
20260504201812 21 6 3.2 9.7 0.00 0.00 0.00 47 1014.7
20260504201313 21 51 3.2 12.9 0.00 0.00 0.00 47 1014.6
20260504200813 22 23 3.2 12.9 0.00 0.00 0.00 45 1014.6
20260504200312 21 30 1.6 11.3 0.00 0.00 0.00 47 1014.6
20260504195812 21 0 0.0 9.7 0.00 0.00 0.00 47 1014.5
20260504195312 21 42 1.6 9.7 0.00 0.00 0.00 45 1014.6
20260504194812 21 0 0.0 11.3 0.00 0.00 0.00 44 1014.6
20260504194312 22 119 3.2 11.3 0.00 0.00 0.00 45 1014.7
20260504193813 22 26 3.2 9.7 0.00 0.00 0.00 44 1014.8
20260504193312 21 72 1.6 6.4 0.00 0.00 0.00 44 1014.7
20260504192816 21 0 0.0 3.2 0.00 0.00 0.00 44 1014.7
20260504192312 20 0 0.0 8.0 0.00 0.00 0.00 42 1014.9
20260504191812 21 0 0.0 8.0 0.00 0.00 0.00 40 1014.9
20260504191312 21 105 1.6 6.4 0.00 0.00 0.00 42 1014.9
20260504190812 20 0 0.0 6.4 0.00 0.00 0.00 44 1014.9
20260504190002 20 139 1.6 4.8 0.00 0.00 0.00 43 1015.0
20260504185501 20 0 0.0 4.8 0.00 0.00 0.00 43 1014.9
20260504185001 20 0 0.0 6.4 0.00 0.00 0.00 42 1014.9
20260504184501 20 0 0.0 6.4 0.00 0.00 0.00 43 1015.0
20260504184001 20 0 0.0 4.8 0.00 0.00 0.00 42 1015.0
20260504183501 21 0 0.0 6.4 0.00 0.00 0.00 40 1015.1
20260504183001 21 79 1.6 6.4 0.00 0.00 0.00 41 1015.1
20260504182501 20 0 0.0 4.8 0.00 0.00 0.00 40 1015.2
20260504182001 20 0 0.0 4.8 0.00 0.00 0.00 42 1015.3
20260504181501 20 0 0.0 6.4 0.00 0.00 0.00 43 1015.3
20260504181001 20 52 1.6 6.4 0.00 0.00 0.00 42 1015.4
20260504180501 20 0 0.0 4.8 0.00 0.00 0.00 46 1015.3
20260504180001 20 0 0.0 4.8 0.00 0.00 0.00 48 1015.4
20260504175501 19 73 1.6 4.8 0.00 0.00 0.00 47 1015.4
20260504175001 19 0 0.0 4.8 0.00 0.00 0.00 49 1015.4
20260504174501 18 0 0.0 4.8 0.00 0.00 0.00 50 1015.5
20260504174001 18 0 0.0 4.8 0.00 0.00 0.00 50 1015.4
20260504173501 18 11 1.6 4.8 0.00 0.00 0.00 53 1015.4
20260504173002 17 0 0.0 3.2 0.00 0.00 0.00 55 1015.4
20260504172501 17 0 0.0 4.8 0.00 0.00 0.00 57 1015.4
20260504172003 17 0 0.0 6.4 0.00 0.00 0.00 57 1015.5
20260504171501 17 0 0.0 6.4 0.00 0.00 0.00 59 1015.4
20260504171001 17 274 1.6 4.8 0.00 0.00 0.00 60 1015.4
20260504170501 17 0 0.0 4.8 0.00 0.00 0.00 60 1015.5
20260504151001 8 0 0.0 1.6 0.00 0.00 0.00 88 1015.7
20260504141001 5 0 0.0 0.0 0.00 0.00 0.00 93 1015.6
20260504140501 5 0 0.0 0.0 0.00 0.00 0.00 93 1015.6
20260504130501 5 0 0.0 0.0 0.00 0.00 0.00 91 1015.2
20260504110501 6 0 0.0 0.0 0.00 0.00 0.00 90 1015.2
20260504100502 7 0 0.0 0.0 0.00 0.00 0.00 91 1015.1
20260504082002 8 0 0.0 0.0 0.00 0.00 0.00 89 1015.6
20260504081501 8 0 0.0 0.0 0.00 0.00 0.00 90 1015.7
20260504081001 8 0 0.0 0.0 0.00 0.00 0.00 89 1016.0
20260504080501 8 0 0.0 0.0 0.00 0.00 0.00 89 1015.9
20260504050501 13 0 0.0 1.6 0.00 0.00 0.00 72 1015.7
20260504050001 13 0 0.0 1.6 0.00 0.00 0.00 72 1015.6
20260504045501 13 0 0.0 1.6 0.00 0.00 0.00 71 1015.6
20260504045001 13 0 0.0 1.6 0.00 0.00 0.00 71 1015.7
20260504044501 13 0 0.0 1.6 0.00 0.00 0.00 71 1015.7
20260504044001 13 0 0.0 3.2 0.00 0.00 0.00 71 1015.6
20260504043501 13 0 0.0 3.2 0.00 0.00 0.00 70 1015.6
20260504043001 13 0 0.0 3.2 0.00 0.00 0.00 70 1015.5
20260504042501 13 0 0.0 3.2 0.00 0.00 0.00 69 1015.4
20260504042001 13 0 0.0 1.6 0.00 0.00 0.00 69 1015.2
20260504041501 13 0 0.0 1.6 0.00 0.00 0.00 69 1015.1
20260504041001 13 0 0.0 1.6 0.00 0.00 0.00 68 1015.0
20260504040501 13 0 0.0 1.6 0.00 0.00 0.00 68 1014.8
20260504040001 13 0 0.0 1.6 0.00 0.00 0.00 68 1014.9
20260504035501 13 0 0.0 1.6 0.00 0.00 0.00 67 1014.8
20260504035001 14 0 0.0 1.6 0.00 0.00 0.00 67 1014.8
20260504034501 14 0 0.0 1.6 0.00 0.00 0.00 66 1014.6
20260504034001 14 0 0.0 3.2 0.00 0.00 0.00 66 1014.4
20260504033501 14 0 0.0 4.8 0.00 0.00 0.00 66 1014.2
20260504033001 14 0 0.0 4.8 0.00 0.00 0.00 65 1014.3
20260504032501 14 0 0.0 4.8 0.00 0.00 0.00 66 1014.3
20260504032001 14 0 0.0 4.8 0.00 0.00 0.00 65 1014.4
20260504031501 15 0 0.0 4.8 0.00 0.00 0.00 64 1014.3
20260504031001 15 0 0.0 1.6 0.00 0.00 0.00 63 1014.2
20260504030501 15 0 0.0 4.8 0.00 0.00 0.00 62 1014.1
20260504030001 15 0 0.0 4.8 0.00 0.00 0.00 61 1014.1
20260504025501 15 0 0.0 4.8 0.00 0.00 0.00 61 1014.0
20260504025001 15 0 0.0 4.8 0.00 0.00 0.00 60 1013.9
20260504024502 15 0 0.0 6.4 0.00 0.00 0.00 59 1013.9
20260504024001 15 0 0.0 6.4 0.00 0.00 0.00 58 1013.9
20260504023501 15 101 1.6 6.4 0.00 0.00 0.00 58 1013.9
20260504023001 15 0 0.0 6.4 0.00 0.00 0.00 58 1013.7
20260504022501 15 95 1.6 12.9 0.00 0.00 0.00 59 1013.8
20260504022001 15 0 0.0 12.9 0.00 0.00 0.00 61 1013.8
20260504021501 16 116 1.6 8.0 0.00 0.00 0.00 61 1013.7
20260504021001 16 69 1.6 8.0 0.00 0.00 0.00 60 1013.7
20260504020501 16 77 1.6 8.0 0.00 0.00 0.00 62 1013.4
20260504020001 16 0 0.0 8.0 0.00 0.00 0.00 61 1013.4
20260504015501 16 0 0.0 8.0 0.00 0.00 0.00 61 1013.4
20260504015001 16 41 1.6 9.7 0.00 0.00 0.00 61 1013.4
20260504014501 16 92 3.2 9.7 0.00 0.00 0.00 59 1013.6
20260504014001 16 93 1.6 9.7 0.00 0.00 0.00 59 1013.5
20260504013501 16 43 1.6 8.0 0.00 0.00 0.00 59 1013.1
20260504013002 16 118 1.6 8.0 0.00 0.00 0.00 58 1013.1
20260504012501 16 0 0.0 11.3 0.00 0.00 0.00 58 1013.0
20260504012001 16 105 1.6 11.3 0.00 0.00 0.00 57 1013.2
20260504011501 16 0 0.0 12.9 0.00 0.00 0.00 57 1013.2
20260504011001 16 104 3.2 12.9 0.00 0.00 0.00 56 1013.1
20260504010501 16 94 1.6 6.4 0.00 0.00 0.00 56 1013.1
20260504010001 16 120 1.6 8.0 0.00 0.00 0.00 56 1013.1
20260504005501 16 139 1.6 8.0 0.00 0.00 0.00 56 1013.2
20260504005001 16 122 1.6 6.4 0.00 0.00 0.00 55 1013.2
20260504004504 16 0 0.0 9.7 0.00 0.00 0.00 55 1013.2
20260504004001 17 105 1.6 9.7 0.00 0.00 0.00 54 1013.2
20260504003501 17 90 1.6 9.7 0.00 0.00 0.00 54 1013.1
20260504002851 17 122 1.6 14.5 0.00 0.00 0.00 53 1013.0
20260504002351 17 76 1.6 14.5 0.00 0.00 0.00 54 1012.9
20260504001851 17 99 1.6 9.7 0.00 0.00 0.00 54 1012.9
20260504001351 17 125 1.6 9.7 0.00 0.00 0.00 53 1012.9
20260504000851 17 114 1.6 8.0 0.00 0.00 0.00 54 1012.9
20260504000353 18 132 1.6 8.0 0.00 0.00 0.00 54 1012.9
20260503235851 18 107 1.6 6.4 0.00 0.00 0.00 54 1012.8
20260503235351 18 0 0.0 8.0 0.00 0.00 0.00 55 1012.7
20260503234851 18 0 0.0 8.0 0.00 0.00 0.00 55 1012.6
20260503234351 18 0 0.0 8.0 0.00 0.00 0.00 55 1012.6
20260503233851 18 0 0.0 8.0 0.00 0.00 0.00 55 1012.6
20260503233351 18 107 1.6 6.4 0.00 0.00 0.00 54 1012.6
20260503232851 18 48 1.6 6.4 0.00 0.00 0.00 54 1012.4
20260503232351 18 0 0.0 8.0 0.00 0.00 0.00 54 1012.4
20260503231851 19 33 1.6 8.0 0.00 0.00 0.00 53 1012.5
20260503231351 19 46 3.2 8.0 0.00 0.00 0.00 54 1012.5
20260503230851 19 0 0.0 8.0 0.00 0.00 0.00 55 1012.6
20260503230351 20 0 0.0 8.0 0.00 0.00 0.00 53 1012.5
20260503225851 20 0 0.0 8.0 0.00 0.00 0.00 53 1012.5
20260503225351 20 0 0.0 4.8 0.00 0.00 0.00 52 1012.6
20260503224851 20 0 0.0 3.2 0.00 0.00 0.00 53 1012.7
20260503224351 20 0 0.0 4.8 0.00 0.00 0.00 54 1012.7
20260503223851 20 2 1.6 6.4 0.00 0.00 0.00 54 1012.8
20260503223351 19 0 0.0 6.4 0.00 0.00 0.00 55 1012.8
20260503222851 19 0 0.0 4.8 0.00 0.00 0.00 54 1012.7
20260503222351 19 40 1.6 4.8 0.00 0.00 0.00 54 1012.9
20260503221851 20 0 0.0 4.8 0.00 0.00 0.00 54 1013.0
20260503221351 20 50 1.6 3.2 0.00 0.00 0.00 55 1013.1
20260503220851 20 0 0.0 4.8 0.00 0.00 0.00 54 1013.2
20260503220351 20 0 0.0 4.8 0.00 0.00 0.00 54 1013.2
20260503215851 20 0 0.0 3.2 0.00 0.00 0.00 55 1013.3